sat.trackr.live / text

‹ back to catalog

YAOGAN-16 01A

NORAD 39011 · 2012-066A

PAYLOAD ACTIVE UNKNOWN

§ Identity

Operator
Country
PRC
Launch date
2012-11-25
Launch site
JSC
Launch vehicle
Mass (kg)
RCS (m²)
2.51

External: N2YO · Heavens-Above · Gunter

§ Orbital elements

Epoch: 2026-05-24T23:48:12.090240Z

Period
107.02 min
Inclination
63.3550°
Eccentricity
0.0433673
Mean motion
13.45514781 rev/d
Perigee alt
765.0 km
Apogee alt
1,412.6 km
Semi-major
7,466.9 km
B*
4.7708e-5
RAAN
349.7137°
Arg perigee
26.9609°
Mean anomaly
335.3247°
Rev number
66,302

§ Raw data

YAOGAN-16 01A1 39011U 12066A   26144.99180660 -.00000041  00000+0  47708-4 0  99902 39011  63.3550 349.7137 0433673  26.9609 335.3247 13.45514781663023

JSON: /api/v1/satellites/39011 · /tle

For live sub-satellite position, see the globe view (requires WebGL).

§ Visibility from observer

Set your observer location to see the next 7 days of passes ≥ 10°. The values pass through the URL so the page stays shareable.

No JS? Fill the form by hand. The geolocation button needs JavaScript.